Location: Boiro
(42.6475°N, 8.8834°W)
Time: 17:20:57
(UTC+01:00)

Tiros 1 despin weight - Pass Details

Date: 06 December 2021
Orbit: 592 x 641 km, 48.2° (Epoch: 25 January)

Event Time Altitude Azimuth Distance (km) Brightness Sun altitude
Rises 18:34:27 0° 295° (WNW) 2,826 ? -6.1°
Reaches altitude 10° 18:36:45 10° 297° (WNW) 1,923 ? -6.5°
Maximum altitude 18:41:09 80° 24° (NNE) 606 ? -7.2°
Drops below altitude 10° 18:45:34 10° 112° (ESE) 1,925 ? -8.0°
Enters shadow 18:47:45 - 113° (ESE) 2,788 ? -8.3°
